x

Canaveral East - 120nm East Of Cape Canaveral (41010) Wave Buoy

4:50pm - Wed 22nd Oct 2014 All times are EDT. -4 hours from GMT.

  • Sig Wave height 2.6ft
  • Swell Direction
  • Peak Period 5s
  • Average Period 4s
  • Wind
    18mph, 20mph gusts
  • Sea Temp 80°f
  • Air Temp 78°f
  • Sea Pressure 1012.7mb
  • Canaveral East - 120nm East Of Cape Canaveral
  • Canaveral East - 120nm East Of Cape Canaveral

More Historic Weather Station data

Upgrade to MSW Pro to gain access to the past 30 days of data for over 8000 Wavebouys and Weather Stations around the globe.

Join Pro

Comparision Forecast

View Surf forecast
   
Wed 10/22 4:50pm 2.5ft 5s 4s 18 20 mph 1012.7mb 80f 78f
4:20pm  -   -   -  16 20 mph 1012.7mb 80f 79f
3:50pm 2.5ft 8s 4s 13 16 mph 1012.9mb 80f 79f
3:20pm  -   -   -  13 16 mph 1013.1mb 80f 79f
2:50pm 3ft 5s 4s 11 13 mph 1013.5mb 80f 79f
2:20pm  -   -   -  11 13 mph 1013.6mb 80f 79f
1:50pm 2.5ft 5s 5s 16 18 mph 1013.8mb 80f 79f
1:20pm  -   -   -  9 11 mph 1014.3mb 80f 80f
12:50pm 2.5ft 8s 5s 9 11 mph 1014.7mb 80f 80f
12:20pm  -   -   -  9 11 mph 1014.9mb 80f 80f
11:50am 2.5ft 10s 5s 9 11 mph 1014.9mb 80f 80f
11:20am  -   -   -  11 13 mph 1015mb 80f 80f
10:50am 2.5ft 11s 5s 9 11 mph 1014.9mb 80f 79f
10:20am  -   -   -  11 13 mph 1014.8mb 80f 80f
9:50am 2.5ft 11s 5s 7 9 mph 1014.7mb 80f 78f
9:20am  -   -   -  7
mph
1014.6mb 80f 78f
8:50am 2.5ft 8s 5s 7 9 mph 1014.3mb 80f 77f
8:20am  -   -   -  9 13 mph 1014.1mb 80f 76f
7:50am 2.5ft 8s 5s 11
mph
1013.7mb 80f 77f
7:20am  -   -   -  7 9 mph 1013.6mb 80f 78f
6:50am 2.5ft 8s 5s 7 9 mph 1013.4mb 80f 78f
6:20am  -   -   -  9 13 mph 1013.2mb 80f 77f
5:50am 2.5ft 9s 5s 13 16 mph 1012.8mb 80f 77f
5:20am  -   -   -  11 13 mph 1012.7mb 80f 79f
4:50am 2.5ft 8s 5s 9 11 mph 1012.7mb 80f 79f
4:20am  -   -   -  9 11 mph 1012.6mb 80f 77f
3:50am 2.5ft 8s 5s 11 16 mph 1012.5mb 80f 76f
3:20am  -   -   -  13 16 mph 1012.6mb 80f 79f
2:50am 2.5ft 5s 5s 11 13 mph 1012.7mb 80f 79f
2:20am  -   -   -  11 13 mph 1013.1mb 80f 79f
1:50am 2.5ft 9s 5s 11 13 mph 1013.3mb 80f 79f
1:20am  -   -   -  11 13 mph 1013.5mb 80f 79f
12:50am 2.5ft 10s 6s 13 16 mph 1014mb 80f 79f
12:20am  -   -   -  7 9 mph 1014.3mb 80f 78f
Tue 10/21 11:50pm 2.5ft 11s 6s 7 9 mph 1014.3mb 80f 78f
11:20pm  -   -   -  7 9 mph 1014.4mb 80f 78f
10:50pm 2.5ft 9s 5s 7 9 mph 1014.5mb 80f 78f
10:20pm  -   -   -  7
mph
1014.5mb 80f 77f
9:50pm 2.5ft 9s 5s 9 11 mph 1014.4mb 80f 77f
9:20pm  -   -   -  9 13 mph 1014.2mb 80f 76f
8:50pm 2.5ft 9s 6s 9 11 mph 1014.2mb 80f 76f
8:20pm  -   -   -  11
mph
1014mb 80f 76f
7:50pm 2ft 9s 6s 13 16 mph 1014mb 80f 77f
7:20pm  -   -   -  2 4 mph 1013.8mb 80f 78f
6:50pm 2.5ft 8s 6s 2
mph
1013.2mb 80f 78f
6:20pm  -   -   -  4 7 mph 1013.3mb 80f 78f
5:50pm 2ft 8s 6s 4 7 mph 1013.2mb 80f 78f
5:20pm  -   -   -  7 9 mph 1013.2mb 80f 77f
4:50pm 2.5ft 9s 6s 9 13 mph 1013mb 80f 78f
4:20pm  -   -   -  2
mph
1013.5mb 80f 78f
3:50pm 2.5ft 9s 6s 2
mph
1013.5mb 80f 77f
3:20pm  -   -   -  2 4 mph 1013.5mb 80f 77f
2:50pm 2.5ft 8s 6s 7 11 mph 1013.6mb 80f 76f
2:20pm  -   -   -  11 13 mph 1013.5mb 80f 78f
1:50pm 2.5ft 8s 6s 11 13 mph 1013.6mb 80f 78f
1:20pm  -   -   -  9 11 mph 1014.1mb 80f 80f
12:50pm 2.5ft 9s 6s 7 9 mph 1014.5mb 80f 80f
12:20pm  -   -   -  4
mph
1014.8mb 80f 81f
11:50am 2.5ft 10s 6s 4 7 mph 1015mb 80f 81f
11:20am  -   -   -  4
mph
1015.2mb 80f 80f
10:50am 2.5ft 9s 6s 4
mph
1015.1mb 80f 80f
10:20am  -   -   -  4
mph
1015mb 80f 80f
9:50am 2.5ft 8s 6s 4 7 mph 1015.1mb 80f 80f
9:20am  -   -   -  7
mph
1015.1mb 80f 80f
8:50am 2.5ft 9s 6s 7 9 mph 1014.8mb 80f 80f
8:20am  -   -   -  7 9 mph 1014.6mb 80f 80f
7:50am 2.5ft 8s 6s 7 9 mph 1014.4mb 80f 80f
7:20am  -   -   -  4 7 mph 1014.2mb 80f 80f
6:50am 2.5ft 10s 6s 7 9 mph 1014.1mb 80f 80f
6:20am  -   -   -  7 9 mph 1013.7mb 80f 80f
5:50am 2.5ft 8s 6s 9 11 mph 1014.1mb 80f 80f
5:20am  -   -   -  9 13 mph 1013.7mb 80f 80f
4:50am 2.5ft 8s 5s 9 11 mph 1013.5mb 80f 80f
4:20am  -   -   -  9 11 mph 1013.7mb 80f 80f
3:50am 2.5ft 8s 5s 9 11 mph 1013.7mb 80f 80f
3:20am  -   -   -  11 13 mph 1014.1mb 80f 80f
2:50am 3ft 9s 5s 11 13 mph 1014.5mb 80f 80f
2:20am  -   -   -  11 16 mph 1014.7mb 80f 80f
1:50am 3ft 9s 5s 11 13 mph 1014.8mb 80f 80f
1:20am  -   -   -  13 16 mph 1015mb 80f 80f
12:50am 3.5ft 9s 5s 13 16 mph 1015.1mb 80f 80f
12:20am  -   -   -  11 16 mph 1015.1mb 80f 80f
Mon 10/20 11:50pm 3ft 9s 5s 11 16 mph 1015.4mb 80f 80f
11:20pm  -   -   -  11 16 mph 1015.7mb 80f 80f
10:50pm 3ft 9s 5s 13 16 mph 1015.8mb 80f 80f
10:20pm  -   -   -  11 13 mph 1016mb 80f 80f
9:50pm 3ft 10s 5s 9 11 mph 1016mb 80f 79f
9:20pm  -   -   -  9 11 mph 1015.9mb 80f 79f
8:50pm 3.5ft 10s 5s 9 11 mph 1015.4mb 80f 79f
8:20pm  -   -   -  9 11 mph 1015.3mb 80f 79f
7:50pm 3.5ft 9s 5s 11 13 mph 1015mb 80f 79f
6:50pm 3.5ft 7s 5s 9 11 mph 1015mb 80f 80f
6:20pm  -   -   -  9 11 mph 1014.8mb 80f 79f
5:50pm 3.5ft 9s 5s 9 11 mph 1015.1mb 80f 79f
5:20pm  -   -   -  11 13 mph 1015mb 80f 79f
4:50pm 4ft 4s 5s 11 13 mph 1015mb 80f 79f
4:20pm  -   -   -  11 13 mph 1015.3mb 80f 79f
3:50pm 3.5ft 7s 5s 13 16 mph 1015.4mb 80f 79f
3:20pm  -   -   -  13 16 mph 1015.4mb 80f 78f
2:50pm 3.5ft 9s 5s 16 18 mph 1015.5mb 80f 79f
2:20pm  -   -   -  16 20 mph 1015.8mb 80f 79f
1:50pm 4ft 4s 5s 16 18 mph 1016.3mb 80f 78f
1:20pm  -   -   -  18 20 mph 1016.8mb 80f 78f
12:50pm 4ft 7s 5s 16 20 mph 1017.4mb 80f 78f
12:20pm  -   -   -  16 20 mph 1017.7mb 80f 78f
11:50am 4ft 5s 5s 16 18 mph 1018.1mb 80f 78f
11:20am  -   -   -  13 18 mph 1018.2mb 80f 78f
10:50am 4ft 7s 5s 13 18 mph 1018.4mb 80f 78f
10:20am  -   -   -  13 18 mph 1018.5mb 80f 78f
9:50am 4ft 8s 5s 16 20 mph 1018.3mb 80f 78f
9:20am  -   -   -  16 20 mph 1018.2mb 80f 78f
8:50am 3.5ft 7s 5s 13 18 mph 1018.1mb 80f 78f
8:20am  -   -   -  16 20 mph 1017.7mb 80f 78f
7:50am 4ft 8s 5s 16 18 mph 1017.2mb 80f 78f
7:20am  -   -   -  13 18 mph 1017.1mb 80f 78f
6:50am 4ft 6s 5s 13 18 mph 1016.9mb 80f 77f
6:20am  -   -   -  13 18 mph 1016.8mb 80f 77f
5:50am 4.5ft 7s 5s 16 18 mph 1016.6mb 80f 77f
5:20am  -   -   -  16 18 mph 1016.6mb 80f 77f
4:50am 4.5ft 7s 5s 16 18 mph 1016.6mb 81f 76f
4:20am  -   -   -  13 18 mph 1016.7mb 81f 76f
3:50am 4.5ft 7s 6s 13 18 mph 1016.8mb 81f 76f
3:20am  -   -   -  13 16 mph 1016.9mb 81f 76f
2:50am 5ft 8s 6s 13 18 mph 1017.1mb 81f 76f
2:20am  -   -   -  16 18 mph 1017.2mb 81f 76f
1:50am 5.5ft 7s 6s 13 18 mph 1017.5mb 81f 76f
1:20am  -   -   -  13 16 mph 1017.5mb 81f 77f
Sun 10/19 11:50pm 6ft 7s 6s 13 18 mph 1017.7mb 81f 77f
11:20pm  -   -   -  18 20 mph 1017.5mb 81f 77f
10:50pm 5ft 7s 5s 18 22 mph 1017.5mb 80f 77f
10:20pm  -   -   -  18 20 mph 1017.5mb 80f 78f
9:50pm 5ft 6s 5s 18 22 mph 1017.3mb 80f 77f
9:20pm  -   -   -  18 22 mph 1017mb 80f 78f
8:50pm 4.5ft 6s 5s 18 22 mph 1016.8mb 81f 78f
8:20pm  -   -   -  18 22 mph 1016.6mb 81f 78f
7:50pm 4.5ft 6s 5s 18 22 mph 1016.3mb 81f 78f
7:20pm  -   -   -  16 20 mph 1016.2mb 81f 78f
6:50pm 4.5ft 6s 5s 18 20 mph 1015.8mb 81f 78f
6:20pm  -   -   -  18 20 mph 1015.5mb 81f 78f
5:50pm 4.5ft 6s 5s 18 20 mph 1015.3mb 81f 78f
5:20pm  -   -   -  16 20 mph 1015.2mb 82f 79f
4:50pm 4ft 6s 5s 13 16 mph 1015.2mb 82f 80f
4:20pm  -   -   -  13
mph
1015.3mb 82f 80f
3:50pm 4.5ft 6s 5s 13 16 mph 1015.2mb 81f 79f
3:20pm  -   -   -  13 16 mph 1015.1mb 81f 79f
2:50pm 3.5ft 5s 5s 13 16 mph 1015.1mb 81f 79f
2:20pm  -   -   -  13 16 mph 1015.4mb 81f 79f
1:50pm 3.5ft 11s 5s 13 16 mph 1015.5mb 81f 79f
1:20pm  -   -   -  9 11 mph 1015.9mb 81f 80f
12:50pm 4ft 13s 6s 7 11 mph 1016.2mb 81f 79f
12:20pm  -   -   -  7 9 mph 1016.4mb 81f 79f
11:50am 3.5ft 9s 6s 7 9 mph 1016.5mb 81f 79f
11:20am  -   -   -  9 11 mph 1016.6mb 80f 79f
10:50am 3.5ft 11s 6s 7 9 mph 1016.3mb 80f 79f
10:20am  -   -   -  7 9 mph 1016.3mb 80f 79f
9:50am 4ft 11s 6s 7 9 mph 1016.2mb 80f 79f
9:20am  -   -   -  9 11 mph 1015.8mb 80f 79f
8:50am 4ft 11s 6s 9 11 mph 1015.4mb 80f 79f
8:20am  -   -   -  9
mph
1015mb 80f 79f
7:50am 5ft 12s 7s 4 9 mph 1014.8mb 80f 79f
7:20am  -   -   -  7 11 mph 1014.6mb 80f 79f
6:50am 4.5ft 12s 7s 9 13 mph 1014.7mb 80f 79f
6:20am  -   -   -  11 13 mph 1014.5mb 80f 79f
5:50am 4.5ft 12s 6s 11 13 mph 1014.4mb 80f 79f
5:20am  -   -   -  11 16 mph 1014.1mb 80f 79f
4:50am 5ft 12s 7s 13 18 mph 1014mb 81f 79f
4:20am  -   -   -  16 18 mph 1013.8mb 81f 79f
3:50am 5ft 12s 7s 13 18 mph 1014mb 81f 79f
3:20am  -   -   -  13 18 mph 1014.2mb 81f 79f
2:50am 5ft 13s 7s 11 13 mph 1014.3mb 81f 79f
2:20am  -   -   -  11 13 mph 1014.5mb 81f 78f
1:50am 4.5ft 13s 7s 11 18 mph 1014.6mb 81f 78f
1:20am  -   -   -  11 16 mph 1014.6mb 81f 78f
12:50am 5ft 13s 7s 13 16 mph 1014.6mb 81f 78f
12:20am  -   -   -  11 16 mph 1014.6mb 81f 78f
Sat 10/18 11:50pm 5ft 13s 7s 11 13 mph 1014.7mb 81f 78f
11:20pm  -   -   -  11 16 mph 1014.7mb 81f 78f
10:50pm 5ft 13s 7s 11 16 mph 1014.6mb 81f 78f
10:20pm  -   -   -  11 13 mph 1014.5mb 81f 78f
9:50pm 5ft 13s 7s 11 16 mph 1014.3mb 81f 78f